Showing default

BLUEWALKER 3, 53807

Orbit data source: Space-Track

BLUEWALKER 3, 53807 is a payload satellite owned by AST & Science (US) in LEO that was launched on Sun, 11 Sep 2022 UTC via an FALCON 9 launch vehicle from the Air Force Eastern Test Range (AFETR). Payload-class satellites include a variety of spacecraft equipped with specific instruments for various scientific and technological missions. These include communications satellites like Starlink; space stations such as the ISS; scientific satellites like the Hubble; Earth observation satellites from companies like Planet Labs, Umbra, and HawkEye 360; GPS; miniature CubeSats for education and research; and military/defense satellites.

Loading next visibility...
Identifier
53807, 2022-111AL
Orbit
LEO
Country
Flag of USUS
Related business
Manufacturer
AST & Science
Mission
Partially operational Commercial Communications
Bus & Motor
BW3, Unknown motor
Mass
1,500 kg wet, 1,500 kg dry
Launch date (UTC)
2022-09-11 (3 years ago)
Launch vehicle
FALCON 9
Launch site
Air Force Eastern Test Range (AFETR)
Object type
Payload
Rocket body
Debris
Shape & HBR
Box + 1 Plate, 4.5 m
Radar Cross Section
1.500 m², Medium (>0.1 m² and < 1m²)

Expand to show TLE details & history
Last TLE update: 16 hours ago

TLE from 16 hours ago
0 BLUEWALKER 3
1 53807U 22111AL  25252.29020626  .00003122  00000-0  10447-3 0  9990
2 53807  53.2305 268.9315 0008709  37.5792 322.5819 15.34103625167020
Epoch: 2025-09-09T06:57Z
TLE epoch observation values (Epoch: 2025-09-09T06:57:53.82Z)
Latitude
-0°
Longitude
175.87415°
Altitude
459.763 km
Speed
7.641 km/s
True Right ascension
17h 55m 43s
True Declination
0° 00' 00"
Sunlit
Object was in daylight at epoch
Visualization orbit readout
Latitude
Unknown
Longitude
Unknown
Altitude
Unknown
Speed
Unknown
Apparent Right ascension
Unknown
Apparent Declination
Unknown
Sunlit
N/A
Visualization observer readout
Local Sidereal Time
14:56:55
Azimuth
Unknown
Elevation
Unknown
Doppler factor
Unknown
Orbital elements
Apogee altitude
469.788 km
Perigee altitude
457.871 km
Semi-major axis
6,841.967 km
Eccentricity
0.00087
Inclination
53.2305°
RAAN
268.9315°
Arg. of periapsis
37.5792°
True anomaly
322.52121°
Mean anomaly
322.5819°
Eccentric anomaly
322.55156°
Mean motion
3.83506 °/min
Orbital period
93.87 mins
BSTAR
0.00010447
Loading maneuver chart data...
Computing Atmospheric mass density...
Loading historical data...
Loading historical data...
Loading historical data...
Loading historical data...
Loading historical data...
Loading historical data...
Loading historical data...

Documentation

Showing up to 5 results
|